Showing default

OPS 2366 (TRANSIT 14), 2401

Orbit data source: Space-Track

OPS 2366 (TRANSIT 14), 2401 is a payload satellite owned by USN NAVAIR (US) in LEO that was launched on Thu, 18 Aug 1966 UTC via an SCOUT A launch vehicle from the Air Force Western Test Range (AFWTR). Payload-class satellites include a variety of spacecraft equipped with specific instruments for various scientific and technological missions. These include communications satellites like Starlink; space stations such as the ISS; scientific satellites like the Hubble; Earth observation satellites from companies like Planet Labs, Umbra, and HawkEye 360; GPS; miniature CubeSats for education and research; and military/defense satellites.

Loading next visibility...
Identifier
2401, 1966-076A
Orbit
LEO
Country
Flag of USUS
Related business
Manufacturer
APL
Mission
Spacecraft
Bus & Motor
TRANSIT 5, Unknown motor
Mass
~49 kg wet, ~49 kg dry
Launch date (UTC)
1966-08-18 (60 years ago)
Launch vehicle
SCOUT A
Launch site
Air Force Western Test Range (AFWTR)
Object type
Payload
Rocket body
Debris
Shape & HBR
OCT CYL + 4 PAN + ANT, 15.0 m
Radar Cross Section
Medium (>0.1 m² and <1 m²)

Expand to show TLE details & history
Last TLE update: 13 hours ago

TLE from 13 hours ago
0 OPS 2366 (TRANSIT 14)
1  2401U 66076A   26208.16047035  .00000131  00000-0  17504-3 0  9991
2  2401  88.8434  61.1216 0032144 185.5509 291.3238 13.53963129956503
Epoch: 2026-07-27T03:51Z
TLE epoch observation values (Epoch: 2026-07-27T03:51:04.638Z)
Latitude
63.53047°
Longitude
-123.80761°
Altitude
1,060.101 km
Speed
7.332 km/s
True Right ascension
15h 55m 14s
True Declination
63° 23' 55"
Sunlit
Object was in daylight at epoch
Visualization orbit readout
Latitude
Unknown
Longitude
Unknown
Altitude
Unknown
Speed
Unknown
Apparent Right ascension
Unknown
Apparent Declination
Unknown
Sunlit
N/A
Visualization observer readout
Local Sidereal Time
06:08:55
Azimuth
Unknown
Elevation
Unknown
Doppler factor
Unknown
Orbital elements
Apogee altitude
1,078.653 km
Perigee altitude
1,030.868 km
Semi-major axis
7,432.898 km
Eccentricity
0.00321
Inclination
88.8434°
RAAN
61.1216°
Arg. of periapsis
185.5509°
True anomaly
290.98017°
Mean anomaly
291.3238°
Eccentric anomaly
291.15204°
Mean motion
3.38693 °/min
Orbital period
106.29 mins
BSTAR
0.00017504
Loading maneuver chart data...
Computing Atmospheric mass density...
Loading historical data...
Loading historical data...
Loading historical data...
Loading historical data...
Loading historical data...
Loading historical data...
Loading historical data...

Documentation

Showing up to 5 results
|